Galesburg, IL

1:24 PM CST on February 10, 2016 (GMT -0600)
Galesburg Municipal

Weather History for KGBG - June, 2014

Change the Weather History Date:

Monday, June 30, 2014

  Actual Average Record
Temperature  
Mean Temperature 76 °F -  
Max Temperature 85 °F 83 °F 98 °F (1956)
Min Temperature 66 °F 63 °F 51 °F (2004)
Cooling Degree Days 10    
Growing Degree Days 26 (Base 50)    
Moisture  
Dew Point 70 °F    
Average Humidity 89    
Maximum Humidity 99    
Minimum Humidity 62    
Precipitation  
Precipitation 1.42 in - - ()
Sea Level Pressure  
Sea Level Pressure 29.78 in    
Wind  
Wind Speed 9 mph (SSE)    
Max Wind Speed 23 mph    
Max Gust Speed 31 mph    
Visibility 9 miles    
Events Rain , Thunderstorm    
Averages and records for this station are not official NWS values.
T = Trace of Precipitation, MM = Missing Value Source: NWS Daily Summary

Daily Weather History Graph

Daily Weather History Graph

Search for Another Location

Airport or City:

Trip Planner

Search our weather history database for the weather conditions in past years. The results will help you decide how hot, cold, wet, or windy it might be!

Date:

Astronomy

Jun. 30, 2014 Rise Set
Actual Time 5:33 AM CDT 8:37 PM CDT
Civil Twilight 4:59 AM CDT 9:11 PM CDT
Nautical Twilight 4:16 AM CDT 9:53 PM CDT
Astronomical Twilight 3:26 AM CDT 10:43 PM CDT
Moon 8:47 AM CDT (6/30) 10:28 PM CDT (6/30)
Length of Visible Light 16h 11m
Length of Day
15h 04m
Waxing Crescent, 10% of the Moon is Illuminated
Jun 30
Waxing Crescent
Jul 5
First Quarter
Jul 12
Full
Jul 18
Last Quarter
Jul 26
New

Hourly Weather History & Observations

Time (CDT) Temp. Heat Index Dew Point Humidity Pressure Visibility Wind Dir Wind Speed Gust Speed Precip Events Conditions
12:15 AM 75.7 °F - 73.2 °F 92% 29.86 in 10.0 mi South 9.2 mph 19.6 mph N/A   Scattered Clouds
12:35 AM 75.7 °F - 73.0 °F 91% 29.86 in 10.0 mi SSE 10.4 mph 16.1 mph N/A   Mostly Cloudy
12:55 AM 75.6 °F - 72.9 °F 91% 29.85 in 10.0 mi SSE 9.2 mph - N/A   Scattered Clouds
1:15 AM 75.2 °F - 72.5 °F 91% 29.84 in 10.0 mi South 13.8 mph 18.4 mph N/A Rain Light Rain
1:35 AM 74.8 °F - 72.5 °F 92% 29.83 in 10.0 mi South 11.5 mph 17.3 mph N/A Thunderstorm Overcast
1:55 AM 74.5 °F - 72.5 °F 94% 29.83 in 10.0 mi South 8.1 mph 18.4 mph N/A Thunderstorm Mostly Cloudy
2:15 AM 74.7 °F - 72.5 °F 93% 29.85 in 10.0 mi South 5.8 mph - N/A   Overcast
2:35 AM 74.5 °F - 72.5 °F 94% 29.85 in 10.0 mi South 6.9 mph - N/A   Overcast
2:55 AM 74.5 °F - 72.5 °F 94% 29.84 in 10.0 mi South 10.4 mph - N/A   Overcast
3:15 AM 74.5 °F - 72.5 °F 94% 29.84 in 10.0 mi South 12.7 mph - N/A   Overcast
3:35 AM 74.3 °F - 72.1 °F 93% 29.84 in 10.0 mi South 8.1 mph - N/A   Overcast
3:55 AM 73.9 °F - 72.0 °F 93% 29.83 in 10.0 mi South 6.9 mph - N/A Thunderstorm Thunderstorm
4:15 AM 73.9 °F - 71.8 °F 93% 29.83 in 7.0 mi Calm Calm - 0.01 in Rain , Thunderstorm Rain
4:35 AM 73.6 °F - 72.0 °F 95% 29.84 in 10.0 mi SSE 3.5 mph - 0.04 in Thunderstorm Thunderstorm
4:55 AM 73.4 °F - 72.7 °F 98% 29.84 in 10.0 mi SSE 4.6 mph - 0.05 in Thunderstorm Thunderstorm
5:15 AM 73.4 °F - 72.9 °F 98% 29.87 in 10.0 mi NNE 10.4 mph - N/A   Overcast
5:35 AM 71.1 °F - 69.6 °F 95% 29.87 in 10.0 mi ENE 5.8 mph - N/A   Overcast
5:55 AM 70.2 °F - 68.2 °F 93% 29.88 in 10.0 mi ENE 10.4 mph 16.1 mph N/A   Overcast
6:15 AM 69.1 °F - 67.3 °F 94% 29.89 in 10.0 mi East 11.5 mph - N/A Rain Rain
6:35 AM 68.9 °F - 67.3 °F 95% 29.88 in 10.0 mi ESE 9.2 mph - N/A   Overcast
6:55 AM 68.9 °F - 67.5 °F 95% 29.88 in 10.0 mi East 8.1 mph - 0.01 in Rain Light Rain
7:15 AM 69.1 °F - 68.0 °F 96% 29.87 in 10.0 mi ESE 8.1 mph - N/A   Mostly Cloudy
7:35 AM 69.4 °F - 68.2 °F 96% 29.86 in 10.0 mi ESE 6.9 mph - N/A Rain Light Rain
7:55 AM 70.3 °F - 69.6 °F 98% 29.86 in 10.0 mi ESE 5.8 mph - 0.01 in   Overcast
8:15 AM 72.0 °F - 70.2 °F 94% 29.87 in 10.0 mi SE 8.1 mph - N/A Thunderstorm Overcast
8:35 AM 71.8 °F - 70.0 °F 94% 29.89 in 10.0 mi ESE 3.5 mph - N/A Thunderstorm Thunderstorm
8:55 AM 70.7 °F - 68.7 °F 93% 29.88 in 0.8 mi East 9.2 mph 24.2 mph 0.30 in Rain , Thunderstorm Heavy Thunderstorms and Rain
9:15 AM 68.9 °F - 66.7 °F 93% 29.89 in 10.0 mi SSW 9.2 mph - 0.03 in Rain , Thunderstorm Thunderstorms and Rain
9:35 AM 66.4 °F - 64.4 °F 93% 29.84 in 10.0 mi SSE 6.9 mph - 0.08 in Rain Light Rain
9:55 AM 67.6 °F - 64.8 °F 90% 29.83 in 10.0 mi SSE 10.4 mph - 0.08 in   Clear
10:15 AM 68.4 °F - 65.3 °F 90% 29.82 in 10.0 mi South 10.4 mph - N/A   Clear
10:35 AM 70.2 °F - 65.8 °F 86% 29.82 in 10.0 mi South 10.4 mph 16.1 mph N/A Thunderstorm Clear
10:55 AM 74.8 °F - 67.5 °F 78% 29.82 in 10.0 mi SSE 15.0 mph 18.4 mph N/A   Clear
11:15 AM 77.5 °F - 68.5 °F 74% 29.80 in 10.0 mi South 9.2 mph 17.3 mph N/A   Clear
11:35 AM 80.1 °F 83.0 °F 69.4 °F 70% 29.80 in 10.0 mi South 10.4 mph - N/A   Clear
11:55 AM 82.9 °F 87.2 °F 70.3 °F 66% 29.80 in 10.0 mi SSW 12.7 mph - N/A   Clear
12:15 PM 84.7 °F 89.4 °F 70.3 °F 62% 29.78 in 10.0 mi South 15.0 mph - N/A   Clear
12:35 PM 84.4 °F 89.4 °F 70.9 °F 64% 29.77 in 10.0 mi SSE 10.4 mph - N/A   Clear
12:55 PM 84.7 °F 91.4 °F 73.2 °F 68% 29.78 in 10.0 mi South 15.0 mph 18.4 mph N/A   Clear
1:15 PM 84.7 °F 91.7 °F 73.4 °F 69% 29.77 in 10.0 mi South 15.0 mph - N/A   Clear
1:35 PM 83.8 °F 91.4 °F 74.7 °F 74% 29.76 in 10.0 mi South 9.2 mph 17.3 mph N/A   Clear
1:55 PM 85.3 °F 95.4 °F 76.5 °F 75% 29.72 in 10.0 mi South 12.7 mph - N/A   Clear
2:15 PM 85.3 °F 95.4 °F 76.6 °F 75% 29.73 in 10.0 mi South 11.5 mph 23.0 mph N/A   Scattered Clouds
2:35 PM 85.1 °F 95.8 °F 77.2 °F 77% 29.73 in 10.0 mi SSE 15.0 mph 23.0 mph N/A   Mostly Cloudy
2:55 PM 84.4 °F 94.6 °F 77.4 °F 79% 29.73 in 10.0 mi SSE 13.8 mph 18.4 mph N/A   Mostly Cloudy
3:15 PM 83.5 °F 93.3 °F 77.4 °F 82% 29.73 in 10.0 mi SSE 12.7 mph 18.4 mph N/A   Scattered Clouds
3:35 PM 82.9 °F 92.1 °F 77.2 °F 83% 29.71 in 10.0 mi SSE 12.7 mph 19.6 mph N/A   Scattered Clouds
3:55 PM 82.4 °F 90.9 °F 77.0 °F 84% 29.71 in 10.0 mi SSE 9.2 mph 16.1 mph N/A   Clear
4:15 PM 82.0 °F 90.2 °F 77.2 °F 85% 29.71 in 10.0 mi South 6.9 mph - N/A   Clear
4:35 PM 81.7 °F 89.5 °F 77.2 °F 86% 29.71 in 10.0 mi SSE 8.1 mph - N/A   Mostly Cloudy
4:55 PM 81.5 °F 89.2 °F 77.4 °F 87% 29.71 in 7.0 mi Calm Calm - N/A   Mostly Cloudy
5:15 PM 73.2 °F - 66.2 °F 79% 29.77 in 10.0 mi NW 20.7 mph 26.5 mph N/A Thunderstorm Overcast
5:35 PM 70.5 °F - 66.2 °F 86% 29.78 in 10.0 mi NNW 17.3 mph 24.2 mph N/A Thunderstorm Thunderstorm
5:55 PM 68.5 °F - 66.4 °F 93% 29.74 in 10.0 mi ENE 5.8 mph - 0.01 in Rain Light Rain
6:15 PM 68.5 °F - 66.2 °F 92% 29.73 in 10.0 mi ENE 9.2 mph - N/A Thunderstorm Overcast
6:35 PM 68.4 °F - 66.2 °F 93% 29.67 in 10.0 mi East 11.5 mph - N/A   Mostly Cloudy
6:55 PM 68.2 °F - 66.2 °F 93% 29.64 in 10.0 mi East 5.8 mph - N/A   Clear
7:15 PM 68.9 °F - 66.7 °F 93% 29.62 in 10.0 mi ESE 5.8 mph - N/A   Scattered Clouds
7:35 PM 69.4 °F - 67.1 °F 92% 29.64 in 10.0 mi East 9.2 mph - N/A   Mostly Cloudy
7:55 PM 69.3 °F - 67.1 °F 93% 29.63 in 10.0 mi East 10.4 mph - N/A   Overcast
8:15 PM 69.3 °F - 67.3 °F 93% 29.64 in 10.0 mi ENE 3.5 mph - N/A   Overcast
8:35 PM 69.8 °F - 67.6 °F 93% 29.68 in 10.0 mi East 5.8 mph - N/A   Mostly Cloudy
8:55 PM 70.5 °F - 68.5 °F 93% 29.74 in 10.0 mi North 23.0 mph - N/A Thunderstorm Thunderstorm
9:15 PM 67.3 °F - 65.8 °F 95% 29.74 in 1.5 mi North 20.7 mph 31.1 mph 0.27 in Rain Heavy Rain
9:35 PM 66.6 °F - 66.4 °F 99% 29.68 in 1.8 mi North 15.0 mph 24.2 mph 0.72 in Rain , Thunderstorm Heavy Thunderstorms and Rain
9:55 PM 68.0 °F - 66.2 °F 94% 29.71 in 2.0 mi SE 5.8 mph - N/A Rain , Thunderstorm Heavy Thunderstorms and Rain
10:15 PM 67.5 °F - 67.3 °F 99% 29.71 in 3.0 mi SE 3.5 mph - 0.21 in Rain , Thunderstorm Heavy Thunderstorms and Rain
10:35 PM 67.3 °F - 67.1 °F 99% 29.71 in 10.0 mi South 9.2 mph - 0.23 in Rain , Thunderstorm Light Thunderstorms and Rain
10:55 PM 67.1 °F - 66.6 °F 98% 29.69 in 10.0 mi South 12.7 mph 18.4 mph 0.23 in Rain , Thunderstorm Thunderstorms and Rain
11:15 PM 66.7 °F - 66.4 °F 99% 29.70 in 10.0 mi SSW 10.4 mph - N/A Thunderstorm Scattered Clouds
11:35 PM 67.1 °F - 66.7 °F 99% 29.70 in 10.0 mi SW 3.5 mph - 0.01 in Rain , Thunderstorm Light Thunderstorms and Rain
11:55 PM 67.3 °F - 67.1 °F 99% 29.74 in 10.0 mi SSW 5.8 mph - 0.01 in Rain , Thunderstorm Light Thunderstorms and Rain